FW4185 Weather Reports


time (UTC)temp
C
wind
direction
speed
KPH
gust
KPH
rain 1hr
cm
rain 24hr
cm
rain mn
cm
humidity
%
barometer
mb
20260507160905 10 357 6.4 11.3 0.00 0.00 0.00 57 1011.3
20260507160227 -17 358 1.6 12.9 0.00 0.00 0.00
20260507155323 10 356 8.0 12.9 0.00 0.00 0.00 57 1011.5
20260507154645 -17 357 0.0 11.3 0.00 0.00 0.00
20260507153857 -17 357 3.2 11.3 0.00 0.00 0.00
20260507152950 10 357 3.2 11.3 0.00 0.00 0.00 56 1011.6
20260507152311 9 355 8.0 12.9 0.00 0.00 0.00 60 1011.6
20260507151631 -17 359 3.2 12.9 0.00 0.00 0.00
20260507150840 9 357 1.6 11.3 0.00 0.00 0.00 57 1011.6
20260507150200 9 358 1.6 8.0 0.00 0.00 0.00 59 1011.6
20260507145520 9 358 0.0 0.0 0.00 0.00 0.00 61 1011.6
20260507144511 10 357 0.0 0.0 0.00 0.00 0.00 56 1011.6
20260507143841 11 359 0.0 0.0 0.00 0.00 0.00 55 1011.6
20260507143156 10 358 0.0 0.0 0.00 0.00 0.00 55 1011.6
20260507142511 10 357 0.0 6.4 0.00 0.00 0.00 55 1011.6
20260507141830 9 357 0.0 6.4 0.00 0.00 0.00 58 1011.6
20260507141151 -17 357 0.0 8.0 0.00 0.00 0.00
20260507140401 10 356 1.6 8.0 0.00 0.00 0.00 55 1011.7
20260507135721 11 358 0.0 0.0 0.00 0.00 0.00 52 1011.8
20260507135041 11 356 0.0 0.0 0.00 0.00 0.00 54 1011.9
20260507134401 10 358 0.0 0.0 0.00 0.00 0.00 56 1011.9
20260507133720 11 357 0.0 0.0 0.00 0.00 0.00 57 1012.0
20260507133041 -17 357 0.0 0.0 0.00 0.00 0.00
20260507132252 -17 358 0.0 0.0 0.00 0.00 0.00
20260507131502 8 358 0.0 0.0 0.00 0.00 0.00 64 1011.9
20260507130822 8 358 0.0 0.0 0.00 0.00 0.00 63 1011.9
20260507130143 8 358 0.0 0.0 0.00 0.00 0.00 63 1011.9
20260507125502 7 357 0.0 0.0 0.00 0.00 0.00 66 1011.9
20260507124822 8 358 0.0 0.0 0.00 0.00 0.00 68 1012.0
20260507124142 -17 358 0.0 0.0 0.00 0.00 0.00
20260507123246 -17 356 0.0 0.0 0.00 0.00 0.00
20260507122456 -17 357 0.0 0.0 0.00 0.00 0.00
20260507121552 -17 358 0.0 0.0 0.00 0.00 0.00
20260507120758 7 360 0.0 0.0 0.00 0.00 0.00 67 1012.1
20260507120124 -17 357 0.0 0.0 0.00 0.00 0.00
20260507115329 6 358 0.0 0.0 0.00 0.00 0.00 71 1012.2
20260507114644 6 357 0.0 0.0 0.00 0.00 0.00 72 1012.3
20260507114005 -17 357 0.0 3.2 0.00 0.00 0.00
20260507112959 -17 358 0.0 0.0 0.00 0.00 0.00
20260507112207 5 358 0.0 0.0 0.00 0.00 0.00 74 1012.2
20260507111528 -17 359 0.0 0.0 0.00 0.00 0.00
20260507110629 -17 357 0.0 0.0 0.00 0.00 0.00
20260507105824 5 357 0.0 0.0 0.00 0.00 0.00 77 1011.7
20260507105145 5 355 0.0 0.0 0.00 0.00 0.00 78 1011.5
20260507104504 5 357 0.0 0.0 0.00 0.00 0.00 79 1011.4
20260507103824 5 357 0.0 0.0 0.00 0.00 0.00 80 1011.4
20260507103144 4 358 0.0 0.0 0.00 0.00 0.00 80 1011.3
20260507102505 4 358 0.0 0.0 0.00 0.00 0.00 81 1011.1
20260507101824 4 358 0.0 0.0 0.00 0.00 0.00 80 1011.2
20260507101144 -17 357 0.0 0.0 0.00 0.00 0.00
20260507100357 -17 358 0.0 0.0 0.00 0.00 0.00
20260507095607 4 358 0.0 0.0 0.00 0.00 0.00 82 1011.4
20260507094927 4 357 0.0 0.0 0.00 0.00 0.00 83 1011.3
20260507094247 -17 358 0.0 0.0 0.00 0.00 0.00
20260507093456 -17 357 0.0 0.0 0.00 0.00 0.00
20260507092707 4 357 0.0 0.0 0.00 0.00 0.00 84 1011.3
20260507092028 -17 356 0.0 0.0 0.00 0.00 0.00
20260507091240 4 357 0.0 0.0 0.00 0.00 0.00 84 1011.4
20260507090453 -17 357 0.0 0.0 0.00 0.00 0.00
20260507085703 4 358 0.0 0.0 0.00 0.00 0.00 84 1011.3
20260507085023 4 357 0.0 0.0 0.00 0.00 0.00 84 1011.2
20260507084343 4 358 0.0 0.0 0.00 0.00 0.00 84 1011.2
20260507083704 4 358 0.0 0.0 0.00 0.00 0.00 85 1011.2
20260507083024 4 358 0.0 0.0 0.00 0.00 0.00 85 1011.3
20260507082344 4 358 0.0 0.0 0.00 0.00 0.00 86 1011.4
20260507081704 4 357 0.0 0.0 0.00 0.00 0.00 85 1011.4
20260507081024 5 357 0.0 0.0 0.00 0.00 0.00 84 1011.5
20260507080344 5 358 0.0 0.0 0.00 0.00 0.00 84 1011.6
20260507075703 5 357 0.0 0.0 0.00 0.00 0.00 84 1011.6
20260507075024 5 357 0.0 4.8 0.00 0.00 0.00 84 1011.6
20260507074344 -17 357 0.0 4.8 0.00 0.00 0.00
20260507073556 5 358 0.0 0.0 0.00 0.00 0.00 84 1011.4
20260507072915 5 356 0.0 0.0 0.00 0.00 0.00 84 1011.4
20260507072236 -17 358 0.0 0.0 0.00 0.00 0.00
20260507071446 -17 356 0.0 4.8 0.00 0.00 0.00
20260507070659 5 357 0.0 0.0 0.00 0.00 0.00 83 1011.3
20260507070017 5 359 0.0 6.4 0.00 0.00 0.00 83 1011.3
20260507065337 6 357 0.0 6.4 0.00 0.00 0.00 83 1011.3
20260507064656 6 356 0.0 8.0 0.00 0.00 0.00 82 1011.4
20260507064018 -17 354 1.6 8.0 0.00 0.00 0.00
20260507063229 6 357 0.0 6.4 0.00 0.00 0.00 80 1011.8
20260507062549 6 358 0.0 4.8 0.00 0.00 0.00 81 1011.9
20260507061910 6 358 0.0 4.8 0.00 0.00 0.00 80 1011.9
20260507061230 6 355 0.0 4.8 0.00 0.00 0.00 81 1011.9
20260507060329 6 359 0.0 4.8 0.00 0.00 0.00 79 1011.8
20260507055650 6 357 0.0 0.0 0.00 0.00 0.00 78 1011.9
20260507055009 6 358 0.0 0.0 0.00 0.00 0.00 80 1011.8
20260507054330 6 359 0.0 0.0 0.00 0.00 0.00 81 1011.9
20260507053212 -17 357 0.0 4.8 0.00 0.00 0.00
20260507052420 6 356 0.0 0.0 0.00 0.00 0.00 81 1012.1
20260507051740 6 358 0.0 4.8 0.00 0.00 0.00 81 1012.1
20260507051100 6 359 0.0 4.8 0.00 0.00 0.00 81 1012.3
20260507050420 7 358 0.0 6.4 0.00 0.00 0.00 79 1012.3
20260507045740 6 358 0.0 6.4 0.00 0.00 0.00 80 1012.2
20260507044948 7 358 0.0 6.4 0.00 0.00 0.00 80 1012.3
20260507044309 -17 358 0.0 6.4 0.00 0.00 0.00
20260507043519 7 358 0.0 6.4 0.00 0.00 0.00 81 1012.4
20260507042840 7 357 0.0 4.8 0.00 0.00 0.00 81 1012.4
20260507042050 7 357 0.0 0.0 0.00 0.00 0.00 81 1012.4
20260507041411 -17 357 0.0 0.0 0.00 0.00 0.00
20260507040622 7 358 0.0 4.8 0.00 0.00 0.00 80 1012.3
20260507035942 7 354 0.0 4.8 0.00 0.00 0.00 80 1012.3
20260507035305 7 358 0.0 0.0 0.00 0.00 0.00 80 1012.3
20260507034621 7 357 0.0 0.0 0.00 0.00 0.00 79 1012.2
20260507033944 -17 355 0.0 0.0 0.00 0.00 0.00
20260507033121 7 357 0.0 0.0 0.00 0.00 0.00 78 1012.1
20260507032441 7 357 0.0 0.0 0.00 0.00 0.00 78 1012.3
20260507031802 -17 357 0.0 0.0 0.00 0.00 0.00
20260507031012 7 358 0.0 0.0 0.00 0.00 1.04 77 1012.2
20260507030331 7 357 0.0 0.0 0.00 0.00 1.04 76 1012.3
20260507025652 7 357 0.0 0.0 0.00 0.00 1.04 75 1012.3
20260507025011 7 356 0.0 0.0 0.00 0.00 1.04 73 1012.4
20260507024332 -17 355 0.0 0.0 0.00 0.00 1.04
20260507023432 7 357 0.0 0.0 0.00 0.00 1.04 72 1012.2
20260507022752 7 359 0.0 0.0 0.00 0.00 1.04 73 1012.1
20260507022113 -17 357 0.0 0.0 0.00 0.00 1.04
20260507021324 -17 358 0.0 0.0 0.00 0.00 1.04
20260507020532 7 356 0.0 0.0 0.00 0.00 1.04 73 1012.1
20260507015853 7 359 0.0 0.0 0.00 0.00 1.04 73 1012.3
20260507015212 7 357 0.0 4.8 0.00 0.00 1.04 71 1012.3
20260507014532 7 356 0.0 6.4 0.00 0.00 1.04 72 1012.5
20260507013853 -17 358 0.0 0.0 0.00 0.00 1.04
20260507012843 7 358 0.0 0.0 0.00 0.00 1.04 73 1012.4
20260507012205 7 358 0.0 4.8 0.00 0.00 1.04 75 1012.3
20260507011523 7 357 0.0 4.8 0.00 0.00 1.04 74 1012.3
20260507010205 6 357 0.0 0.0 0.00 0.00 1.04 76 1012.1
20260507005525 7 359 0.0 0.0 0.00 0.00 1.04 78 1011.9
20260507004845 7 359 0.0 0.0 0.00 0.00 1.04 79 1011.9
20260507004205 7 358 0.0 0.0 0.00 0.00 1.04 77 1011.9
20260507003526 7 357 0.0 0.0 0.00 0.00 1.04 78 1011.8
20260507002846 -17 357 0.0 0.0 0.00 0.00 1.04
20260507001941 -17 356 0.0 0.0 0.00 0.00 1.04
20260507001153 -17 358 0.0 0.0 0.00 0.00 1.04
20260507000405 7 357 0.0 0.0 0.00 0.00 1.04 78 1011.3
20260506235724 6 358 0.0 0.0 0.00 0.00 1.04 79 1011.2
20260506235044 -17 357 0.0 0.0 0.00 0.00 1.04
20260506234142 6 359 0.0 0.0 0.00 0.00 1.04 78 1011.3
20260506233500 6 357 0.0 0.0 0.00 0.00 1.04 79 1011.2
20260506232710 6 358 0.0 0.0 0.00 0.00 1.04 77 1011.2
20260506231848 6 357 0.0 0.0 0.00 0.00 1.04 79 1011.3
20260506231209 6 355 0.0 0.0 0.00 0.00 1.04 78 1011.1
20260506230528 7 357 0.0 0.0 0.00 0.00 1.04 78 1011.2
20260506225848 7 357 0.0 0.0 0.00 0.00 1.04 77 1011.2
20260506225209 7 355 0.0 0.0 0.00 0.00 1.04 78 1011.1
20260506224528 7 358 0.0 8.0 0.00 0.00 1.04 78 1011.1
20260506223848 7 358 0.0 6.4 0.00 0.00 1.04 79 1011.1
20260506223208 7 357 0.0 8.0 0.00 0.00 1.04 80 1011.1
20260506222529 -17 357 0.0 4.8 0.00 0.00 1.04
20260506221738 -17 355 0.0 6.4 0.00 0.00 1.04
20260506220948 7 357 0.0 11.3 0.00 0.00 1.04 77 1010.5
20260506220309 -17 356 3.2 14.5 0.00 0.00 1.04
20260506215518 6 354 4.8 14.5 0.00 0.00 1.04 80 1010.4
20260506214837 7 358 0.0 12.9 0.00 0.00 1.04 82 1010.4
20260506214157 6 359 4.8 16.1 0.00 0.00 1.04 82 1010.4
20260506213518 6 357 8.0 16.1 0.00 0.00 1.04 83 1010.3
20260506212839 -17 356 8.0 6.4 0.00 0.00 1.04
20260506212046 -17 354 11.3 16.1 0.00 0.00 1.04
20260506211256 7 356 11.3 22.5 0.00 0.00 1.04 85 1010.0
20260506210616 7 357 11.3 19.3 0.00 0.00 1.04 85 1009.9
20260506205936 8 357 8.0 25.7 0.00 0.00 1.04 84 1009.8
20260506205256 8 355 14.5 25.7 0.00 0.00 1.04 83 1009.8
20260506204617 8 356 12.9 20.9 0.00 0.00 1.04 83 1009.5
20260506203937 8 357 9.7 20.9 0.00 0.00 1.04 83 1009.4
20260506203257 -17 357 12.9 6.4 0.00 0.00 1.04
20260506202509 9 357 11.3 25.7 0.00 0.00 1.04 83 1009.7
20260506201829 9 355 11.3 17.7 0.00 0.00 1.04 81 1009.6
20260506201149 -17 357 9.7 9.7 0.00 0.00 1.04
20260506200400 10 357 6.4 6.4 0.00 0.00 1.04 77 1009.4
20260506195604 10 356 6.4 17.7 0.00 0.00 1.04 78 1009.3
20260506194923 10 357 6.4 16.1 0.00 0.00 1.04 77 1009.3
20260506194242 11 356 8.0 16.1 0.00 0.00 1.04 72 1009.2
20260506193603 -17 356 11.3 14.5 0.00 0.00 1.04
20260506192813 11 356 9.7 16.1 0.00 0.00 1.04 67 1009.2
20260506192132 11 356 9.7 16.1 0.00 0.00 1.04 66 1009.1
20260506191452 12 357 4.8 12.9 0.00 0.00 1.04 63 1009.1
20260506190812 11 358 4.8 11.3 0.00 0.00 1.04 67 1009.1
20260506190132 -17 357 3.2 6.4 0.00 0.00 1.04
20260506185259 -17 358 6.4 9.7 0.00 0.00 1.04
20260506184508 12 359 1.6 8.0 0.00 0.00 1.04 65 1008.9
20260506183829 -17 357 4.8 8.0 0.00 0.00 1.04
20260506183041 12 359 3.2 6.4 0.00 0.00 1.04 65 1008.9
20260506182401 11 357 1.6 8.0 0.00 0.00 1.04 62 1008.9
20260506181721 -17 357 3.2 6.4 0.00 0.00 1.02
20260506180933 -17 357 0.0 4.8 0.00 0.00 1.02
20260506175925 10 357 0.0 4.8 0.00 0.00 1.02 65 1009.0
20260506175241 -17 357 0.0 0.0 0.00 0.00 1.02
20260506174224 -17 358 1.6 4.8 0.00 0.00 1.02
20260506173327 11 355 0.0 0.0 0.00 0.00 1.02 67 1008.9
20260506172647 11 356 0.0 0.0 0.00 0.00 1.02 57 1009.0
20260506172012 11 355 0.0 0.0 0.00 0.00 1.02 60 1008.9
20260506171328 11 356 0.0 0.0 0.00 0.00 1.02 64 1009.0
20260506170647 11 359 0.0 0.0 0.00 0.00 1.02 68 1009.0
20260506170010 10 356 0.0 0.0 0.00 0.00 1.02 72 1009.0
20260506165221 10 357 0.0 0.0 0.00 0.00 1.02 76 1009.0
20260506164541 10 357 0.0 4.8 0.00 0.00 1.02 73 1009.0
20260506163750 10 356 0.0 6.4 0.00 0.00 1.02 73 1009.0
20260506163110 10 358 1.6 6.4 0.00 0.00 1.02 75 1008.9
20260506162430 10 358 0.0 4.8 0.00 0.00 1.02 74 1008.7
20260506161750 10 357 0.0 6.4 0.00 0.00 1.02 75 1008.6